Temperature
16 16 16 16 16 16 16 16 16 17 17 17 17 17 17 17 17 17 17 17 17 17 17 17 17 17 17 18 18 18 18 18 18 18 18 18 18 18 18 18 18 17 18
16 16 16 16 16 16 16 16 16 16 16 16 17 17 17 17 17 17 17 17 17 17 17 17 17 17 17 17 18 18 18 18 18 18 18 18 18 18 18 18 18 18 18
16 16 16 16 16 16 16 16 16 16 16 16 16 16 16 17 17 17 17 17 17 17 17 17 17 17 17 17 18 18 18 18 18 18 18 17 17 18 18 18 18 18 18
16 16 15 16 16 16 16 16 16 16 16 16 16 16 16 16 16 17 17 17 17 17 17 17 17 17 17 17 17 17 18 18 18 18 17 17 17 18 18 18 18 18 18
16 15 16 16 16 16 16 16 16 16 16 16 16 16 16 16 16 16 16 16 16 17 17 17 17 17 17 17 17 17 17 18 18 17 17 17 17 18 18 18 18 18 18
16 16 15 16 16 16 16 16 16 16 16 16 16 16 16 16 16 16 16 16 16 16 17 17 17 17 17 17 17 17 17 17 17 17 17 17 17 17 17 17 17 17 18
16 16 15 16 16 16 16 16 16 16 16 16 16 16 16 16 16 16 16 16 16 16 16 16 17 17 17 17 17 17 17 17 16 17 17 17 17 17 17 17 17 17 17
16 16 16 16 16 16 16 16 15 15 16 16 16 16 16 16 16 16 16 16 16 16 16 16 16 17 17 17 17 17 17 17 16 16 16 17 17 17 17 17 17 17 17
16 16 16 16 16 16 16 16 15 15 15 16 16 16 16 16 16 16 16 16 16 16 16 16 16 16 16 16 16 17 17 17 16 16 16 16 17 17 17 17 17 17 17
16 16 16 16 16 16 16 16 16 15 15 15 16 16 16 16 16 16 15 16 16 16 16 16 16 16 16 16 16 16 16 16 16 16 16 16 17 17 17 17 17 17 17
17 16 16 16 16 16 16 16 15 16 16 16 15 16 15 15 15 15 15 16 16 16 16 16 16 16 16 16 16 16 16 16 16 16 16 16 16 17 17 17 17 17 17
17 17 17 16 16 16 16 15 15 15 15 15 15 15 15 15 15 15 16 16 16 16 16 16 16 16 16 15 16 16 16 15 16 16 16 16 16 16 16 16 16 16 17
17 17 17 17 16 16 16 16 15 15 15 15 15 15 15 15 15 15 15 15 15 15 15 15 15 15 15 15 15 15 15 15 15 15 16 16 16 16 16 16 16 16 16
17 17 17 17 17 17 16 16 16 16 16 16 15 15 15 15 15 15 15 15 15 15 15 15 15 15 15 15 15 15 15 15 15 15 15 16 16 16 16 16 16 16 16
17 17 17 17 17 17 16 16 16 16 16 16 16 15 15 15 15 15 15 15 15 15 15 15 15 15 15 15 15 15 15 15 15 15 15 15 15 16 16 16 16 16 16
18 17 17 17 16 16 16 16 16 16 16 16 16 16 16 15 15 15 15 15 15 15 15 15 15 15 15 15 15 15 15 15 15 15 15 15 15 15 15 15 16 15 15
18 17 17 17 16 16 16 16 16 16 16 16 16 16 16 15 15 15 15 15 15 15 15 15 15 15 15 15 15 15 15 14 14 14 14 14 14 15 15 15 15 15 15
18 17 17 16 16 16 16 16 16 16 16 16 16 15 16 16 15 15 15 15 15 15 15 15 15 15 15 15 15 14 14 14 14 14 14 14 14 14 14 15 15 15 15
17 17 17 16 16 16 16 16 16 16 16 16 15 15 15 15 15 15 15 15 15 15 15 15 15 14 14 14 14 14 14 14 14 14 14 14 14 14 14 14 14 14 14
17 17 17 16 16 16 16 16 16 16 16 15 15 15 15 15 15 15 15 15 15 15 15 14 14 14 14 14 14 14 14 14 14 14 14 14 14 14 14 14 14 14 14
17 17 17 17 16 16 16 16 16 15 15 15 15 15 15 15 15 15 15 15 15 15 14 14 14 14 14 14 14 14 14 14 14 14 14 14 14 14 14 14 13 13 13
17 17 17 16 16 16 16 16 15 15 15 15 15 15 15 15 15 15 15 15 15 15 14 14 14 14 14 14 14 15 15 14 14 14 13 13 13 14 13 13 13 13 13
17 17 16 16 16 16 16 15 15 15 15 15 15 15 15 15 15 15 15 15 15 14 14 14 14 14 14 14 14 15 15 16 14 14 13 13 13 13 13 13 13 13 13
17 17 16 16 16 16 16 16 16 15 16 15 15 15 15 15 15 15 15 15 15 14 14 14 14 14 14 14 14 14 14 14 15 14 14 13 13 13 13 13 13 13 13
17 17 16 16 16 16 16 16 15 15 15 15 15 15 15 15 15 15 15 15 15 14 14 14 14 14 14 14 14 14 14 14 14 15 14 13 13 13 13 13 13 13 13
17 17 16 16 16 16 16 16 16 15 15 15 15 15 15 15 15 15 15 15 15 15 14 14 14 14 14 14 14 14 14 14 14 14 14 14 13 13 13 13 13 13 13
Wind_Speed
4 5 6 5 7 7 8 9 9 9 8 9 9 10 10 10 10 10 10 9 9 10 10 10 9 9 9 9 10 9 10 9 9 8 8 7 7 7 7 5 3 6 7
4 5 6 6 7 8 8 9 9 9 9 10 10 10 10 10 10 9 9 9 9 10 10 10 9 9 9 9 9 10 10 10 9 8 7 7 8 8 7 6 6 7 7
5 5 6 6 7 7 8 9 9 9 10 10 10 10 10 10 10 9 9 9 9 10 10 10 9 9 9 9 9 10 10 9 8 6 3 6 8 8 7 7 7 7 7
5 5 7 7 6 7 8 9 9 10 10 10 11 11 10 10 10 10 9 9 9 9 9 9 9 9 9 9 9 9 9 9 7 3 4 7 7 9 7 8 8 7 7
6 5 7 6 7 8 8 9 10 10 10 10 10 10 10 10 10 9 9 9 9 9 9 9 9 9 9 9 9 9 9 8 6 5 8 7 7 8 8 8 7 7 7
6 6 8 7 8 9 9 9 9 10 10 10 9 9 10 10 10 9 9 9 9 9 9 9 9 10 9 9 9 9 9 7 4 7 7 7 8 10 9 9 8 8 7
6 6 8 8 8 8 8 9 9 9 9 9 9 9 10 10 10 9 9 9 9 9 9 9 9 10 10 10 10 10 8 5 6 7 7 8 10 10 9 9 8 8 7
6 6 7 8 8 8 8 8 8 8 8 9 9 9 9 9 9 10 10 9 9 9 9 9 10 10 11 11 11 11 9 5 7 7 7 8 10 9 9 9 8 8 7
5 5 6 7 7 7 8 8 8 8 8 8 9 9 9 9 9 9 9 9 10 10 10 10 10 10 11 11 11 11 10 7 6 6 7 8 9 9 8 8 8 7 7
5 5 5 5 6 6 8 9 8 8 8 8 8 8 7 7 8 8 9 10 9 10 10 10 11 11 11 11 10 10 7 4 7 8 8 9 10 9 8 8 8 7 7
4 4 5 5 6 6 6 7 6 7 6 5 6 5 3 6 7 7 11 10 10 10 10 10 10 10 9 10 9 7 5 6 8 8 9 11 10 9 9 9 9 8 8
5 4 4 4 5 5 5 5 4 5 5 5 5 5 5 6 6 7 10 10 10 10 10 9 8 7 4 6 7 4 6 7 7 8 10 12 11 10 10 9 9 9 8
4 4 4 4 4 4 4 4 4 4 4 5 5 5 5 5 5 6 6 7 7 6 7 7 5 6 7 7 6 6 7 7 7 8 11 12 11 11 10 10 9 9 9
4 3 3 3 4 4 4 4 3 4 4 4 5 5 5 5 4 5 5 6 5 5 5 5 6 7 8 8 7 8 8 6 6 8 11 12 11 11 11 10 9 9 9
4 3 4 3 3 4 4 3 3 4 4 5 5 4 5 4 4 5 5 5 5 5 5 5 6 7 7 8 8 8 8 8 8 8 9 12 12 12 11 10 10 9 9
3 4 4 3 3 3 3 3 4 4 4 4 4 4 5 4 4 4 5 4 5 5 5 5 6 6 6 6 7 8 7 7 7 7 7 9 12 13 13 12 11 10 10
3 4 4 3 3 3 3 4 4 3 3 4 3 3 4 4 4 4 4 4 4 5 5 5 7 6 5 6 7 7 7 7 7 7 7 6 8 11 13 13 12 12 11
3 3 4 3 3 3 3 3 3 3 3 3 3 3 3 4 4 4 4 4 4 4 5 4 4 5 5 5 5 5 5 6 7 7 7 7 7 7 10 13 13 13 12
3 3 4 3 3 3 3 3 3 3 3 2 3 3 3 4 4 4 3 3 4 4 4 4 4 4 5 5 5 5 5 6 5 6 7 8 8 7 7 10 11 13 13
3 4 4 4 3 4 3 2 3 3 2 2 2 3 3 3 3 3 3 4 4 3 4 4 5 4 4 4 5 5 5 5 5 6 6 6 7 7 8 7 7 9 12
4 4 4 4 4 3 2 2 2 2 2 2 2 3 2 2 3 3 2 3 2 3 3 4 4 5 3 3 3 4 4 5 5 4 4 5 6 6 7 7 7 7 7
4 4 4 4 4 3 2 1 2 2 1 2 2 2 2 2 2 2 2 2 3 2 3 3 2 2 2 1 0 1 1 3 3 4 4 4 5 5 6 7 7 7 7
4 4 4 4 4 3 3 2 2 2 2 2 2 2 2 2 3 2 2 2 2 2 2 2 2 1 1 1 2 2 1 2 1 3 4 4 4 4 4 6 6 7 7
5 4 4 4 3 3 3 2 2 1 1 2 2 2 3 3 3 2 2 2 2 2 2 2 1 1 0 1 1 2 3 2 1 1 2 3 4 4 4 4 5 6 6
5 5 4 4 3 3 2 2 2 2 2 2 2 3 3 3 3 3 2 2 2 2 2 1 1 0 1 1 1 1 1 1 2 1 1 1 2 3 3 4 4 5 6
5 5 4 4 3 3 3 3 2 2 2 3 3 3 3 3 2 3 2 2 2 1 2 2 1 1 0 1 1 1 1 1 1 1 1 1 2 2 3 3 3 4 4
Wind_Direction
55 54 52 49 64 63 64 66 70 68 69 70 72 74 77 77 78 83 83 81 78 79 82 85 84 83 83 83 81 79 77 77 78 80 81 79 79 78 75 74 89 94 87
66 72 71 56 65 64 64 67 71 68 67 72 72 73 76 77 74 79 83 80 79 78 78 78 78 79 80 80 80 79 77 76 73 73 79 86 82 77 76 67 51 73 81
72 75 82 69 70 68 68 69 72 72 72 71 71 73 74 75 73 78 82 81 80 81 80 76 75 76 78 79 80 79 77 76 75 75 87 86 88 78 74 75 73 73 76
77 70 69 71 72 71 73 73 72 74 74 71 70 71 70 68 66 72 78 80 80 80 81 77 73 72 75 79 81 80 78 76 71 70 74 70 76 76 68 75 78 77 76
80 75 76 69 71 74 74 73 72 73 74 71 70 69 69 66 63 65 72 78 81 81 77 74 73 71 73 77 77 78 79 76 68 59 63 64 68 71 67 77 79 77 72
85 83 85 73 74 76 75 72 73 74 73 71 71 70 69 66 62 63 69 75 79 82 79 74 75 73 73 73 75 75 74 75 76 65 63 64 70 72 72 74 73 72 68
84 81 88 78 72 72 73 73 72 74 75 71 69 68 67 64 61 64 70 76 77 80 82 80 76 76 73 71 71 70 68 66 71 70 66 64 68 69 70 69 66 66 65
87 86 92 94 75 67 68 71 71 71 75 75 69 67 62 61 59 63 67 71 75 77 78 79 77 76 73 71 70 68 65 49 74 67 65 65 66 68 67 65 60 59 60
94 94 86 92 97 95 78 68 68 69 73 75 72 68 63 63 61 60 67 70 73 75 76 78 78 77 75 73 70 69 66 47 60 58 61 63 67 69 66 66 62 57 57
100 99 93 89 84 84 91 78 68 67 70 74 73 69 71 83 78 69 74 76 76 76 77 80 81 80 78 75 71 68 61 51 60 58 55 61 63 64 63 61 63 61 61
108 103 98 91 86 78 76 83 82 84 80 96 96 89 84 74 75 84 73 78 82 83 81 80 80 81 88 85 74 68 60 60 62 56 54 56 55 58 58 55 58 61 60
115 110 103 91 90 87 77 77 71 75 75 71 67 67 62 66 69 79 92 85 87 90 90 82 87 99 93 89 91 82 69 63 59 61 57 55 52 52 52 51 53 57 56
111 109 107 97 92 83 81 72 67 75 78 75 68 71 69 73 84 85 95 102 97 98 86 94 99 80 76 73 70 72 65 59 59 57 53 50 49 49 50 52 53 56 54
118 114 108 98 97 89 80 74 71 81 78 75 70 66 68 67 72 77 79 79 81 80 75 78 76 78 75 74 71 68 68 63 63 62 54 47 45 48 49 51 53 56 55
120 126 116 109 91 89 81 79 84 83 77 80 72 73 74 73 73 79 81 78 78 82 86 81 80 78 75 70 66 64 63 60 60 61 62 54 48 48 46 48 52 55 56
116 113 116 119 100 92 99 95 82 83 86 73 73 71 71 73 77 81 86 80 75 74 77 82 81 79 74 72 69 64 59 58 61 60 62 64 59 50 45 47 51 56 59
113 116 115 112 107 97 91 88 89 85 81 77 72 62 72 75 76 79 79 81 78 84 86 82 86 83 80 77 71 64 59 52 56 56 53 52 62 62 49 46 52 56 58
129 124 121 128 118 104 97 100 95 83 71 76 77 68 70 79 79 82 81 83 84 88 92 91 88 88 81 75 70 63 63 58 52 51 54 55 50 50 60 53 52 54 56
145 136 130 124 119 115 112 109 90 88 81 79 84 81 76 80 83 92 85 89 97 95 91 93 90 88 87 83 78 71 64 61 54 51 54 51 52 49 54 66 62 56 54
156 145 133 130 129 119 122 121 112 98 92 82 81 80 69 77 82 90 102 98 100 102 100 102 104 99 91 93 88 79 71 70 62 52 48 50 47 47 47 50 60 65 59
162 160 148 150 140 132 124 126 122 117 106 93 80 79 88 91 92 96 102 97 97 102 109 117 117 115 104 103 110 103 96 78 68 60 49 47 51 45 46 50 52 54 62
166 166 157 154 153 139 128 128 116 112 100 93 92 92 94 93 98 106 112 112 113 116 128 126 136 127 113 93 21 165 127 119 75 61 57 50 47 54 49 48 52 53 48
173 172 167 164 156 149 143 137 140 133 144 128 113 98 85 87 91 95 102 117 127 143 138 140 142 142 118 80 12 336 351 46 84 86 57 55 52 48 52 51 50 51 51
179 176 173 163 155 152 154 159 162 170 137 116 115 112 113 107 104 102 109 119 128 127 140 150 131 91 1 52 72 22 14 27 339 100 93 63 52 46 44 49 47 49 49
176 177 176 166 162 162 166 157 179 164 147 142 138 130 129 114 108 109 115 122 121 127 139 126 112 10 349 351 19 52 61 54 340 345 65 69 77 63 48 43 44 43 43
173 173 177 177 171 173 185 183 185 167 165 157 156 145 142 130 122 114 117 121 118 120 129 123 129 144 347 359 352 1 341 358 18 8 21 59 57 68 63 56 44 43 39
Height
1544 1542 1541 1540 1540 1540 1539 1539 1538 1538 1538 1537 1536 1536 1536 1536 1536 1535 1535 1535 1535 1536 1536 1536 1536 1536 1536 1536 1536 1536 1536 1536 1536 1536 1536 1536 1536 1536 1536 1536 1537 1537 1536
1544 1543 1542 1541 1541 1541 1540 1540 1540 1539 1539 1539 1538 1538 1537 1537 1537 1537 1537 1537 1537 1537 1537 1537 1537 1538 1538 1538 1537 1537 1537 1537 1537 1538 1538 1538 1538 1538 1537 1537 1537 1538 1537
1545 1544 1543 1542 1542 1542 1542 1541 1541 1540 1540 1540 1540 1539 1539 1539 1538 1538 1538 1538 1538 1538 1538 1539 1539 1539 1539 1539 1539 1539 1538 1539 1539 1539 1539 1540 1539 1539 1539 1539 1538 1538 1538
1546 1546 1545 1543 1543 1543 1543 1543 1542 1542 1542 1541 1541 1541 1540 1540 1540 1540 1540 1540 1540 1540 1540 1540 1540 1540 1540 1540 1540 1540 1540 1540 1540 1540 1541 1541 1541 1540 1540 1540 1539 1539 1539
1547 1547 1546 1545 1545 1544 1544 1544 1544 1543 1543 1543 1542 1542 1542 1542 1541 1541 1541 1541 1541 1541 1541 1541 1541 1541 1541 1541 1541 1541 1541 1541 1541 1542 1542 1541 1541 1540 1540 1541 1540 1540 1540
1549 1548 1548 1547 1546 1546 1546 1546 1545 1545 1545 1544 1544 1544 1543 1543 1543 1543 1543 1543 1543 1543 1543 1543 1543 1543 1542 1543 1542 1542 1542 1542 1543 1543 1543 1542 1542 1541 1541 1542 1541 1541 1541
1550 1550 1550 1548 1548 1548 1547 1547 1547 1547 1546 1546 1546 1545 1545 1544 1544 1544 1544 1544 1544 1544 1544 1544 1544 1544 1544 1544 1544 1543 1543 1543 1544 1544 1544 1544 1543 1543 1542 1542 1542 1542 1542
1552 1552 1551 1550 1550 1549 1549 1549 1549 1548 1548 1548 1547 1547 1546 1546 1546 1546 1545 1545 1545 1545 1545 1545 1545 1545 1545 1545 1545 1544 1544 1545 1546 1546 1546 1545 1544 1544 1543 1543 1543 1543 1542
1553 1553 1553 1553 1552 1551 1551 1551 1550 1550 1550 1549 1549 1549 1548 1548 1548 1547 1547 1547 1546 1546 1546 1546 1546 1546 1546 1546 1546 1546 1546 1546 1547 1547 1547 1546 1545 1545 1544 1544 1544 1543 1543
1555 1555 1555 1555 1555 1554 1554 1552 1552 1552 1551 1551 1551 1550 1550 1550 1549 1549 1548 1548 1548 1548 1547 1547 1547 1548 1548 1548 1547 1547 1547 1548 1549 1549 1548 1547 1546 1546 1545 1545 1545 1544 1544
1556 1556 1556 1556 1556 1556 1555 1554 1554 1554 1553 1553 1553 1552 1552 1552 1552 1551 1550 1549 1549 1549 1549 1549 1549 1549 1549 1549 1549 1549 1549 1550 1550 1550 1549 1548 1547 1547 1546 1546 1545 1544 1544
1557 1558 1558 1558 1558 1557 1557 1556 1556 1556 1555 1555 1555 1554 1554 1554 1553 1552 1552 1551 1551 1551 1551 1551 1551 1551 1551 1551 1551 1551 1551 1551 1551 1551 1550 1549 1548 1548 1547 1546 1546 1545 1544
1558 1558 1559 1559 1559 1559 1558 1558 1558 1558 1557 1557 1557 1556 1556 1555 1555 1555 1554 1554 1553 1553 1553 1553 1553 1553 1553 1553 1553 1553 1552 1552 1552 1552 1550 1550 1549 1548 1548 1547 1546 1545 1545
1559 1559 1560 1560 1560 1560 1560 1559 1559 1559 1559 1559 1558 1558 1558 1557 1557 1557 1556 1556 1555 1555 1554 1555 1554 1554 1554 1555 1554 1554 1554 1553 1553 1552 1551 1550 1550 1549 1548 1547 1546 1546 1545
1560 1560 1560 1560 1561 1561 1560 1560 1561 1561 1561 1561 1559 1560 1560 1559 1559 1559 1558 1557 1558 1557 1556 1556 1556 1556 1556 1556 1556 1555 1555 1554 1554 1553 1552 1551 1550 1550 1549 1548 1547 1546 1546
1560 1561 1561 1561 1561 1562 1562 1562 1562 1562 1561 1562 1561 1561 1561 1561 1561 1560 1560 1559 1559 1559 1558 1558 1558 1557 1557 1557 1557 1556 1556 1556 1555 1554 1553 1552 1551 1551 1550 1549 1547 1547 1546
1561 1561 1562 1562 1562 1562 1562 1562 1562 1563 1563 1563 1563 1563 1563 1562 1562 1562 1562 1561 1560 1560 1560 1559 1559 1559 1558 1558 1558 1558 1557 1556 1556 1555 1554 1554 1553 1552 1551 1549 1548 1548 1547
1561 1562 1562 1562 1563 1563 1563 1563 1564 1564 1564 1564 1564 1564 1564 1564 1563 1563 1563 1562 1561 1561 1561 1561 1561 1560 1560 1560 1559 1559 1558 1557 1557 1557 1556 1555 1554 1554 1552 1551 1550 1549 1548
1561 1562 1562 1563 1563 1563 1563 1564 1564 1564 1564 1565 1565 1565 1565 1565 1564 1564 1564 1563 1563 1562 1562 1562 1562 1562 1561 1561 1561 1560 1560 1559 1559 1558 1558 1557 1556 1555 1554 1552 1551 1550 1549
1561 1562 1562 1563 1563 1564 1564 1565 1564 1564 1565 1565 1565 1565 1565 1565 1565 1565 1565 1564 1564 1564 1563 1563 1563 1563 1562 1563 1563 1562 1561 1561 1560 1559 1559 1558 1557 1556 1555 1554 1553 1552 1551
1561 1562 1562 1563 1563 1564 1564 1565 1565 1565 1565 1565 1565 1565 1565 1566 1566 1566 1566 1566 1565 1565 1565 1565 1564 1564 1564 1564 1564 1564 1563 1563 1562 1560 1560 1559 1558 1556 1556 1555 1554 1553 1553
1561 1561 1562 1563 1563 1564 1564 1565 1565 1565 1565 1565 1565 1565 1566 1566 1566 1566 1566 1566 1566 1565 1565 1565 1565 1565 1565 1565 1566 1565 1565 1566 1563 1562 1561 1560 1559 1558 1557 1556 1555 1555 1554
1560 1561 1562 1563 1563 1564 1564 1564 1564 1565 1565 1566 1566 1566 1566 1566 1566 1567 1567 1567 1566 1566 1566 1566 1566 1566 1566 1566 1565 1566 1565 1565 1565 1564 1563 1562 1560 1559 1558 1558 1557 1556 1555
1559 1560 1562 1562 1563 1563 1564 1564 1565 1565 1566 1566 1566 1566 1566 1566 1566 1566 1567 1567 1567 1567 1567 1567 1566 1566 1566 1566 1566 1565 1566 1565 1565 1565 1564 1563 1561 1560 1560 1559 1558 1557 1556
1559 1560 1561 1562 1562 1563 1563 1564 1565 1565 1566 1566 1566 1566 1567 1567 1567 1567 1567 1567 1567 1567 1567 1567 1567 1567 1567 1566 1566 1566 1565 1565 1565 1565 1565 1564 1563 1562 1560 1559 1559 1558 1557
1558 1559 1560 1561 1562 1562 1563 1564 1564 1565 1565 1566 1566 1567 1567 1567 1567 1567 1567 1567 1567 1567 1567 1567 1567 1567 1566 1566 1566 1566 1566 1566 1566 1565 1565 1564 1564 1563 1561 1560 1560 1559 1558